sat.trackr.live / text

‹ back to catalog

STARLINK-11643 [DTC]

NORAD 63192 · 2025-048K

PAYLOAD ACTIVE UNKNOWN

§ Identity

Operator
Country
US
Launch date
2025-03-13
Launch site
AFETR
Launch vehicle
Mass (kg)
RCS (m²)

Purposes: comms

External: N2YO · Heavens-Above · Gunter

§ Orbital elements

Epoch: 2026-05-25T04:43:38.811072Z

Period
91.66 min
Inclination
42.9988°
Eccentricity
0.0000907
Mean motion
15.70942326 rev/d
Perigee alt
355.6 km
Apogee alt
356.8 km
Semi-major
6,734.3 km
B*
1.2257e-3
RAAN
218.7438°
Arg perigee
246.0375°
Mean anomaly
114.0398°
Rev number
7,055

§ Raw data

STARLINK-11643 [DTC]1 63192U 25048K   26145.19697698  .00160591  00000+0  12257-2 0  99932 63192  42.9988 218.7438 0000907 246.0375 114.0398 15.70942326 70551

JSON: /api/v1/satellites/63192 · /tle

For live sub-satellite position, see the globe view (requires WebGL).

§ Visibility from observer

Set your observer location to see the next 7 days of passes ≥ 10°. The values pass through the URL so the page stays shareable.

No JS? Fill the form by hand. The geolocation button needs JavaScript.